sat.trackr.live / text

‹ back to catalog

STARLINK-1626

NORAD 46167 · 2020-057BC

PAYLOAD ACTIVE UNKNOWN

§ Identity

Operator
Country
US
Launch date
2020-08-18
Launch site
AFETR
Launch vehicle
Mass (kg)
RCS (m²)

Purposes: comms

External: N2YO · Heavens-Above · Gunter

§ Orbital elements

Epoch: 2026-05-25T02:31:23.207808Z

Period
91.75 min
Inclination
53.0419°
Eccentricity
0.0001119
Mean motion
15.69402859 rev/d
Perigee alt
359.9 km
Apogee alt
361.4 km
Semi-major
6,738.7 km
B*
7.0871e-4
RAAN
280.3996°
Arg perigee
346.0315°
Mean anomaly
14.0670°
Rev number
31,833

§ Raw data

STARLINK-16261 46167U 20057BC  26145.10512972  .00085071  00000+0  70871-3 0  99992 46167  53.0419 280.3996 0001119 346.0315  14.0670 15.69402859318334

JSON: /api/v1/satellites/46167 · /tle

For live sub-satellite position, see the globe view (requires WebGL).

§ Visibility from observer

Set your observer location to see the next 7 days of passes ≥ 10°. The values pass through the URL so the page stays shareable.

No JS? Fill the form by hand. The geolocation button needs JavaScript.